KHPN

Westchester County Airport

White Plains, New York, USA
Issued Wind Visibility Ceiling Temperature Dew Point Humidity Rain Barometer
Dec-11
02:56 UTC
240°
6 KTS
10 miles   C
34° F
-6° C
21° F
60%   29.98" Hg
1015.9 hPa
VFR
Dec-11
01:56 UTC
Varies @4 KTS 10 miles   C
34° F
-7° C
19° F
56%   29.97" Hg
1015.7 hPa
VFR
Dec-11
00:56 UTC
260°
7 KTS
10 miles   C
34° F
-7° C
19° F
56%   29.97" Hg
1015.7 hPa
VFR
Dec-10
23:56 UTC
260°
5 KTS
10 miles   C
34° F
-7° C
19° F
56%   29.95" Hg
1015 hPa
VFR
Dec-10
22:56 UTC
250°
7 KTS
10 miles Broken
5,500'AGL
C
34° F
-6° C
21° F
60%   29.94" Hg
1014.8 hPa
VFR
Dec-10
21:56 UTC
260°
4 KTS
10 miles Broken
6,000'AGL
C
36° F
-6° C
21° F
56%   29.92" Hg
1013.9 hPa
VFR
Dec-10
20:56 UTC
250°
6 KTS
10 miles Broken
5,000'AGL
C
36° F
-6° C
21° F
56%   29.9" Hg
1013.5 hPa
VFR
Dec-10
19:56 UTC
250°
6 KTS
10 miles Broken
4,900'AGL
C
36° F
-6° C
21° F
56%   29.89" Hg
1012.7 hPa
VFR
Dec-10
18:56 UTC
270°
9 KTS
10 miles   C
36° F
-6° C
21° F
56%   29.87" Hg
1012.3 hPa
VFR
Dec-10
17:56 UTC
270°
10 KTS
10 miles   C
37° F
-6° C
21° F
52%   29.87" Hg
1012.2 hPa
VFR
Dec-10
16:56 UTC
270°
8 KTS
10 miles   C
36° F
-6° C
21° F
56%   29.87" Hg
1012.3 hPa
VFR
Dec-10
15:56 UTC
280°
8 KTS
10 miles   C
34° F
-6° C
21° F
60%   29.87" Hg
1012.3 hPa
VFR
Dec-10
14:56 UTC
270°
9 KTS
10 miles   -1° C
30° F
-7° C
19° F
64%   29.87" Hg
1012.3 hPa
VFR
Dec-10
13:56 UTC
260°
7 KTS
10 miles   -2° C
28° F
-6° C
21° F
74%   29.86" Hg
1011.9 hPa
VFR
Dec-10
12:56 UTC
260°
7 KTS
9 miles   -3° C
27° F
-6° C
21° F
80%   29.83" Hg
1011.1 hPa
VFR
Dec-10
11:56 UTC
280°
7 KTS
10 miles Broken
2,500'AGL
-2° C
28° F
-6° C
21° F
74%   29.8" Hg
1009.9 hPa
MVFR
Dec-10
10:56 UTC
280°
8 KTS
10 miles   -2° C
28° F
-6° C
21° F
74%   29.76" Hg
1008.7 hPa
VFR
Dec-10
09:56 UTC
290°
10 KTS
10 miles   -2° C
28° F
-6° C
21° F
74%   29.73" Hg
1007.5 hPa
VFR
Dec-10
08:56 UTC
280°
6 KTS
10 miles   -2° C
28° F
-4° C
25° F
86%   29.71" Hg
1006.9 hPa
VFR
Dec-10
07:56 UTC
280°
5 KTS
10 miles   -1° C
30° F
-3° C
27° F
86%   29.71" Hg
1006.7 hPa
VFR
Dec-10
06:56 UTC
320°
8 KTS
9 miles Broken
7,500'AGL
-1° C
30° F
-3° C
27° F
86%   29.69" Hg
1006.3 hPa
VFR
Dec-10
06:27 UTC
310°
10 KTS
10 miles Overcast
8,500'AGL
-1° C
30° F
-3° C
27° F
86%   29.7" Hg
1006 hPa
VFR
Dec-10
05:56 UTC
300°
10 KTS
10 miles Overcast
8,000'AGL
-1° C
30° F
-3° C
27° F
86%   29.69" Hg
1006.2 hPa
VFR
Dec-10
04:56 UTC
320°
9 KTS
10 miles Broken
7,500'AGL
-2° C
28° F
-3° C
27° F
93% 0.005" 29.69" Hg
1006.1 hPa
VFR
Dec-10
03:56 UTC
330°
11 KTS
6 miles Overcast
6,000'AGL
-1° C
30° F
-3° C
27° F
86% 0.005" 29.69" Hg
1006.1 hPa
VFR